Time,TemperatureF,DewpointF,PressureIn,WindDirection,WindDirectionDegrees,WindSpeedMPH,WindSpeedGustMPH,Humidity,HourlyPrecipIn,Conditions,Clouds,dailyrainin,SolarRadiationWatts/m^2,SoftwareType,DateUTC
2013-07-26 00:33:00,61.0,36.0,-100.00,SW,235,1.0,9.0,39,0.00,,,-99.99,1.000000,,2013-07-26 06:33:00,
2013-07-26 00:43:00,61.0,36.0,-100.00,SW,235,1.0,9.0,39,0.00,,,-99.99,1.000000,,2013-07-26 06:43:00,
2013-07-26 00:52:00,61.0,36.0,-100.00,SW,235,1.0,9.0,39,0.00,,,-99.99,1.000000,,2013-07-26 06:52:00,
2013-07-26 01:32:00,58.0,37.0,-100.00,WNW,302,3.0,6.0,45,0.00,,,0.00,1.000000,,2013-07-26 07:32:00,
2013-07-26 01:43:00,58.0,37.0,-100.00,WNW,302,3.0,6.0,45,0.00,,,0.00,1.000000,,2013-07-26 07:43:00,
2013-07-26 01:52:00,58.0,37.0,-100.00,WNW,302,3.0,6.0,45,0.00,,,0.00,1.000000,,2013-07-26 07:52:00,
2013-07-26 02:32:00,56.0,36.0,-100.00,North,356,2.0,7.0,46,0.00,,,0.00,1.000000,,2013-07-26 08:32:00,
2013-07-26 02:44:00,56.0,36.0,-100.00,North,356,2.0,7.0,46,0.00,,,0.00,1.000000,,2013-07-26 08:44:00,
2013-07-26 02:52:00,56.0,36.0,-100.00,North,356,2.0,7.0,46,0.00,,,0.00,1.000000,,2013-07-26 08:52:00,
2013-07-26 03:22:00,53.0,37.0,-100.00,NNW,336,2.0,4.0,55,0.00,,,0.00,1.000000,,2013-07-26 09:22:00,
2013-07-26 03:32:00,53.0,37.0,-100.00,NNW,336,2.0,4.0,55,0.00,,,0.00,1.000000,,2013-07-26 09:32:00,
2013-07-26 03:43:00,53.0,37.0,-100.00,NNW,336,2.0,4.0,55,0.00,,,0.00,1.000000,,2013-07-26 09:43:00,
2013-07-26 03:52:00,53.0,37.0,-100.00,NNW,336,2.0,4.0,55,0.00,,,0.00,1.000000,,2013-07-26 09:52:00,
2013-07-26 04:22:00,50.0,36.0,-100.00,WSW,251,2.0,4.0,59,0.00,,,0.00,1.000000,,2013-07-26 10:22:00,
2013-07-26 04:33:00,50.0,36.0,-100.00,WSW,251,2.0,4.0,59,0.00,,,0.00,1.000000,,2013-07-26 10:33:00,
2013-07-26 04:42:00,50.0,36.0,-100.00,WSW,251,2.0,4.0,59,0.00,,,0.00,1.000000,,2013-07-26 10:42:00,
2013-07-26 04:52:00,50.0,36.0,-100.00,WSW,251,2.0,4.0,59,0.00,,,0.00,1.000000,,2013-07-26 10:52:00,
2013-07-26 05:22:00,48.0,38.0,-100.00,WNW,287,1.0,6.0,69,0.00,,,0.00,1.000000,,2013-07-26 11:22:00,
2013-07-26 05:32:00,48.0,38.0,-100.00,WNW,287,1.0,6.0,69,0.00,,,0.00,1.000000,,2013-07-26 11:32:00,
2013-07-26 05:43:00,48.0,38.0,-100.00,WNW,287,1.0,6.0,69,0.00,,,0.00,1.000000,,2013-07-26 11:43:00,
2013-07-26 05:52:00,48.0,38.0,-100.00,WNW,287,1.0,6.0,69,0.00,,,0.00,1.000000,,2013-07-26 11:52:00,
2013-07-26 06:22:00,48.0,38.0,-100.00,SSW,211,3.0,5.0,69,0.00,,,0.00,1.000000,,2013-07-26 12:22:00,
2013-07-26 06:33:00,48.0,38.0,-100.00,SSW,211,3.0,5.0,69,0.00,,,0.00,1.000000,,2013-07-26 12:33:00,
2013-07-26 06:43:00,48.0,38.0,-100.00,SSW,211,3.0,5.0,69,0.00,,,0.00,1.000000,,2013-07-26 12:43:00,
2013-07-26 06:53:00,48.0,38.0,-100.00,SSW,211,3.0,5.0,69,0.00,,,0.00,1.000000,,2013-07-26 12:53:00,
2013-07-26 07:22:00,49.0,40.0,-100.00,WNW,300,1.0,5.0,70,0.00,,,0.00,34.000000,,2013-07-26 13:22:00,
2013-07-26 07:32:00,49.0,40.0,-100.00,WNW,300,1.0,5.0,70,0.00,,,0.00,34.000000,,2013-07-26 13:32:00,
2013-07-26 07:43:00,49.0,40.0,-100.00,WNW,300,1.0,5.0,70,0.00,,,0.00,34.000000,,2013-07-26 13:43:00,
2013-07-26 07:53:00,49.0,40.0,-100.00,WNW,300,1.0,5.0,70,0.00,,,0.00,34.000000,,2013-07-26 13:53:00,
2013-07-26 09:32:00,66.0,42.0,-100.00,East,96,2.0,5.0,42,-99.99,,,0.00,344.000000,,2013-07-26 15:32:00,
2013-07-26 09:43:00,66.0,42.0,-100.00,East,96,2.0,5.0,42,-99.99,,,0.00,344.000000,,2013-07-26 15:43:00,
2013-07-26 09:53:00,66.0,42.0,-100.00,East,96,2.0,5.0,42,-99.99,,,0.00,344.000000,,2013-07-26 15:53:00,
2013-07-26 10:43:00,69.0,43.0,-100.00,SSE,165,6.0,11.0,39,0.00,,,0.00,539.000000,,2013-07-26 16:43:00,
2013-07-26 10:53:00,69.0,43.0,-100.00,SSE,165,6.0,11.0,39,0.00,,,0.00,539.000000,,2013-07-26 16:53:00,
2013-07-26 11:22:00,74.0,45.0,-100.00,SSE,162,6.0,10.0,35,0.00,,,0.00,703.000000,,2013-07-26 17:22:00,
2013-07-26 11:33:00,74.0,45.0,-100.00,SSE,162,6.0,10.0,35,0.00,,,0.00,703.000000,,2013-07-26 17:33:00,
2013-07-26 11:43:00,74.0,45.0,-100.00,SSE,162,6.0,10.0,35,0.00,,,0.00,703.000000,,2013-07-26 17:43:00,
2013-07-26 11:53:00,74.0,45.0,-100.00,SSE,162,6.0,10.0,35,0.00,,,0.00,703.000000,,2013-07-26 17:53:00,
2013-07-26 12:22:00,77.0,41.0,-100.00,SSW,200,8.0,14.0,28,0.00,,,0.00,832.000000,,2013-07-26 18:22:00,
2013-07-26 12:33:00,77.0,41.0,-100.00,SSW,200,8.0,14.0,28,0.00,,,0.00,832.000000,,2013-07-26 18:33:00,
2013-07-26 12:43:00,77.0,41.0,-100.00,SSW,200,8.0,14.0,28,0.00,,,0.00,832.000000,,2013-07-26 18:43:00,
2013-07-26 12:52:00,77.0,41.0,-100.00,SSW,200,8.0,14.0,28,0.00,,,0.00,832.000000,,2013-07-26 18:52:00,
2013-07-26 13:43:00,82.0,41.0,-100.00,South,187,8.0,13.0,23,0.00,,,0.00,916.000000,,2013-07-26 19:43:00,
2013-07-26 13:52:00,82.0,41.0,-100.00,South,187,8.0,13.0,23,0.00,,,0.00,916.000000,,2013-07-26 19:52:00,
2013-07-26 14:22:00,85.0,32.0,-100.00,WSW,252,8.0,15.0,15,0.00,,,0.00,999.000000,,2013-07-26 20:22:00,
2013-07-26 14:32:00,85.0,32.0,-100.00,WSW,252,8.0,15.0,15,0.00,,,0.00,999.000000,,2013-07-26 20:32:00,
2013-07-26 14:43:00,85.0,32.0,-100.00,WSW,252,8.0,15.0,15,0.00,,,0.00,999.000000,,2013-07-26 20:43:00,
2013-07-26 14:52:00,85.0,32.0,-100.00,WSW,252,8.0,15.0,15,0.00,,,0.00,999.000000,,2013-07-26 20:52:00,
2013-07-26 16:32:00,87.0,34.0,-100.00,West,280,7.0,19.0,15,0.00,,,0.00,873.000000,,2013-07-26 22:32:00,
2013-07-26 16:43:00,87.0,34.0,-100.00,West,280,7.0,19.0,15,0.00,,,0.00,873.000000,,2013-07-26 22:43:00,
2013-07-26 16:53:00,87.0,34.0,-100.00,West,280,7.0,19.0,15,0.00,,,0.00,873.000000,,2013-07-26 22:53:00,
2013-07-26 17:22:00,86.0,33.0,-100.00,West,275,6.0,18.0,15,0.00,,,0.00,732.000000,,2013-07-26 23:22:00,
2013-07-26 17:32:00,86.0,33.0,-100.00,West,275,6.0,18.0,15,0.00,,,0.00,732.000000,,2013-07-26 23:32:00,
2013-07-26 17:43:00,86.0,33.0,-100.00,West,275,6.0,18.0,15,0.00,,,0.00,732.000000,,2013-07-26 23:43:00,
2013-07-26 17:52:00,86.0,33.0,-100.00,West,275,6.0,18.0,15,0.00,,,0.00,732.000000,,2013-07-26 23:52:00,
2013-07-26 18:22:00,85.0,30.0,-100.00,WNW,291,6.0,18.0,14,0.00,,,0.00,577.000000,,2013-07-27 00:22:00,
2013-07-26 18:32:00,85.0,30.0,-100.00,WNW,291,6.0,18.0,14,0.00,,,0.00,577.000000,,2013-07-27 00:32:00,
2013-07-26 18:42:00,85.0,30.0,-100.00,WNW,291,6.0,18.0,14,0.00,,,0.00,577.000000,,2013-07-27 00:42:00,
2013-07-26 18:53:00,85.0,30.0,-100.00,WNW,291,6.0,18.0,14,0.00,,,0.00,577.000000,,2013-07-27 00:53:00,
2013-07-26 19:22:00,85.0,29.0,-100.00,WSW,255,4.0,11.0,13,0.00,,,0.00,396.000000,,2013-07-27 01:22:00,
2013-07-26 19:32:00,85.0,29.0,-100.00,WSW,255,4.0,11.0,13,0.00,,,0.00,396.000000,,2013-07-27 01:32:00,
2013-07-26 19:43:00,85.0,29.0,-100.00,WSW,255,4.0,11.0,13,0.00,,,0.00,396.000000,,2013-07-27 01:43:00,
2013-07-26 19:53:00,85.0,29.0,-100.00,WSW,255,4.0,11.0,13,0.00,,,0.00,396.000000,,2013-07-27 01:53:00,
2013-07-26 20:22:00,76.0,31.0,-100.00,NW,312,4.0,9.0,19,0.00,,,0.00,175.000000,,2013-07-27 02:22:00,
2013-07-26 20:32:00,76.0,31.0,-100.00,NW,312,4.0,9.0,19,0.00,,,0.00,175.000000,,2013-07-27 02:32:00,
2013-07-26 20:43:00,76.0,31.0,-100.00,NW,312,4.0,9.0,19,0.00,,,0.00,175.000000,,2013-07-27 02:43:00,
2013-07-26 20:52:00,76.0,31.0,-100.00,NW,312,4.0,9.0,19,0.00,,,0.00,175.000000,,2013-07-27 02:52:00,
2013-07-26 21:44:00,66.0,33.0,-100.00,WNW,290,3.0,7.0,29,0.00,,,-99.99,12.000000,,2013-07-27 03:44:00,
2013-07-26 21:52:00,66.0,33.0,-100.00,WNW,290,3.0,7.0,29,0.00,,,-99.99,12.000000,,2013-07-27 03:52:00,
2013-07-26 22:22:00,62.0,32.0,-100.00,NNW,340,2.0,7.0,32,0.00,,,0.00,1.000000,,2013-07-27 04:22:00,
2013-07-26 22:32:00,62.0,32.0,-100.00,NNW,340,2.0,7.0,32,0.00,,,0.00,1.000000,,2013-07-27 04:32:00,
2013-07-26 22:43:00,62.0,32.0,-100.00,NNW,340,2.0,7.0,32,0.00,,,0.00,1.000000,,2013-07-27 04:43:00,
2013-07-26 22:53:00,62.0,32.0,-100.00,NNW,340,2.0,7.0,32,0.00,,,0.00,1.000000,,2013-07-27 04:53:00,
2013-07-26 23:22:00,61.0,33.0,-100.00,NE,36,6.0,7.0,35,0.00,,,0.00,1.000000,,2013-07-27 05:22:00,
2013-07-26 23:32:00,61.0,33.0,-100.00,NE,36,6.0,7.0,35,0.00,,,0.00,1.000000,,2013-07-27 05:32:00,
2013-07-26 23:43:00,61.0,33.0,-100.00,NE,36,6.0,7.0,35,0.00,,,0.00,1.000000,,2013-07-27 05:43:00,
2013-07-26 23:52:00,61.0,33.0,-100.00,NE,36,6.0,7.0,35,0.00,,,0.00,1.000000,,2013-07-27 05:52:00,